Weather Roundup
Issued by NWS

Home | Current Version | Previous Version | Text Only | Print | Product List | Glossary On
Versions: 1 2 3 4 5 6 7 8 9 10 11 12 13 14 15 16 17 18 19 20 21 22 23 24 25 26 27 28 29 30 31 32 33 34 35 36 37 38 39 40 41 42 43 44 45 46 47 48 49 50
795
NZUS93 KARX 251110
HRRWXR

CURRENT HOURLY OBSERVATIONS ACROSS
MUCH OF THE UPPER MISSISSIPPI VALLEY
NATIONAL WEATHER SERVICE LA CROSSE WI
600 AM CDT THU MAY 25 2017


...SOUTHEAST MINNESOTA...


CITY           SKY/WX    TMP DP  RH WIND       PRES   REMARKS
ROCHESTER      MOCLDY    46  46 100 SE7       29.72R
ROCHESTER/MAYO NOT AVBL
WINONA         PTCLDY    46  45  93 NW3       29.72R
AUSTIN         MOCLDY    45  43  93 CALM      29.71R
ALBERT LEA       N/A     45  45 100 CALM      29.71R
DODGE CENTER   FOG       45  45 100 SE6       29.71S VSB 3/4
PRESTON        CLEAR     47  46  94 CALM      29.72R
OWATONNA       CLEAR     45  43  93 SE5       29.71R FOG
FARIBAULT      CLEAR     43  43 100 CALM      29.71R FOG
$$

...ELSEWHERE IN MINNESOTA...


CITY           SKY/WX    TMP DP  RH WIND       PRES   REMARKS
MINNEAPOLIS    PTCLDY    50  46  86 SE3       29.71R
INTNL FALLS    CLEAR     43  38  82 E9        29.73R
DULUTH         CLEAR     42  41  96 E8        29.74S
RED WING       CLEAR     45  43  93 CALM      29.71R
REDWOOD FALLS  CLEAR     46  43  89 SE9       29.65S
MANKATO          N/A     47  46  97 SE9       29.69S
WORTHINGTON    PTCLDY    46  44  93 SE12      29.63F
FAIRMONT       CLEAR     43  43 100 S6        29.68F
$$

...SOUTHWEST WISCONSIN...


CITY           SKY/WX    TMP DP  RH WIND       PRES   REMARKS
LA CROSSE      FOG       46  45  96 CALM      29.70R VSB 1/4
PRAIRIE DU CHI CLOUDY    53  47  82 CALM      29.69R
BOSCOBEL       CLOUDY    55  49  80 NE5       29.68S
LONE ROCK      CLOUDY    55  49  80 N6        29.68R
PLATTEVILLE    CLOUDY    53  52  97 N10       29.67S
FORT MC COY    CLOUDY    46  46 100 CALM      29.70F
CAMP DOUGLAS   CLOUDY    52  51  96 N3        29.69S
MAUSTON-NEW LI CLOUDY    53  50  90 N3        29.69R
VIROQUA        CLOUDY    51  48  90 MISG      29.68F
WIS DELLS      CLOUDY    52  49  88 N6        29.68R
$$

...ELSEWHERE IN WISCONSIN...


CITY           SKY/WX    TMP DP  RH WIND       PRES   REMARKS
MILWAUKEE      MOCLDY    53  50  89 N16       29.61R
MADISON        CLOUDY    52  50  93 N10       29.66R
GREEN BAY      CLEAR     48  48 100 N7        29.66S
EAU CLAIRE     PTCLDY    50  49  96 NE3       29.70F
BLACK RVR FLS  FOG       39  39 100 CALM      29.70F VSB<1/4
MEDFORD        PTCLDY    43  43  98 NE3       29.71S
WAUSAU         CLEAR     49  47  93 CALM      29.69S
WIS RAPIDS     CLEAR     49  47  93 N5        29.71R
MARSHFIELD     MOCLDY    48  46  93 N3        29.70R
RICE LAKE      CLOUDY    52  48  84 E3        29.73S
$$

...NORTHEAST IOWA...


CITY           SKY/WX    TMP DP  RH WIND       PRES   REMARKS
WATERLOO       FOG       41  40  96 NW5       29.70R VSB 1/2
DUBUQUE        CLOUDY    51  49  92 NE7       29.66F
DECORAH        CLOUDY    48  46  93 CALM      29.70R
MASON CITY     FOG       40  40 100 CALM      29.72R VSB<1/4
CHARLES CITY   CLEAR     46  46 100 CALM      29.72R FOG
OELWEIN        CLEAR     45  45 100 N5        29.70R FOG
$$

...ELSEWHERE IN IOWA...


CITY           SKY/WX    TMP DP  RH WIND       PRES   REMARKS
DES MOINES     PTCLDY    46  44  93 CALM      29.70R
IOWA CITY      CLEAR     48  46  93 W6        29.70R
FORT DODGE     CLEAR     45  41  87 CALM      29.69S
MARSHALLTOWN   FOG       43  43 100 N5        29.70R VSB 1/4
CEDAR RAPIDS   CLEAR     45  45 100 NW7       29.69R
$$

...NORTHERN ILLINOIS...


CITY           SKY/WX    TMP DP  RH WIND       PRES   REMARKS
CHICAGO-OHARE  PTCLDY    54  50  86 N12       29.56R
CHICAGO-MIDWAY MOCLDY    56  51  84 N10       29.55R
MOLINE         CLEAR     53  49  86 N3        29.64S
ROCKFORD       CLOUDY    55  51  86 N10       29.65R
PEORIA         CLOUDY    54  51  90 N9        29.63R
$$

NOTE: "FAIR" INDICATES FEW OR NO CLOUDS BELOW 12,000 FEET WITH NO
SIGNIFICANT WEATHER AND/OR OBSTRUCTIONS TO VISIBILITY. WIND
SPEEDS ARE IN MILES-PER-HOUR.




USA.gov is the U.S. government's official web portal to all federal, state and local government web resources and services.